Terminal Aerodrome Forecast
Issued by NWS Burlington, VT

Home | Current Version | Previous Version | Text Only | Print | Product List | Glossary On
Versions: 1 2 3 4 5 6 7 8 9 10 11 12 13 14 15 16 17 18 19 20
000
FTUS41 KBTV 201135
TAFBTV
TAF
KBTV 201135Z 2012/2112 VRB04KT P6SM SCT025
     FM202100 VRB04KT P6SM SCT025 BKN080
     FM210600 VRB03KT P6SM BKN025=

USA.gov is the U.S. government's official web portal to all federal, state and local government web resources and services.